Location: Saratoga Springs
(43.0831°N, 73.7850°W)
Time: 03:20:35
(UTC-04:00)

Vanguard 2 Rocket - Pass Details

Date: 19 April 2024
Orbit: 556 x 3304 km, 32.9° (Epoch: 17 May)

Event Time Altitude Azimuth Distance (km) Brightness Sun altitude
Rises 02:07:38 0° 268° (W) 7,141 11.3 -33.0°
Reaches altitude 10° 02:12:25 10° 265° (W) 6,226 10.9 -32.7°
Maximum altitude 02:31:48 57° 195° (SSW) 3,413 9.3 -31.2°
Drops below altitude 10° 02:46:29 10° 122° (ESE) 4,852 10.6 -29.8°
Sets 02:49:42 0° 118° (ESE) 5,543 11.0 -29.5°
